Regional Weather Roundup
Issued by NWS

Home | Current Version | Previous Version | Text Only | Print | Product List | Glossary Off
Versions: 1 2 3 4 5 6 7 8 9 10 11 12 13 14 15 16 17 18 19 20 21 22 23 24 25 26 27 28 29 30 31 32 33 34 35 36 37 38 39 40 41 42 43 44 45 46 47 48 49 50

000
ASUS45 KCYS 251110
RWRWY

WYOMING REGIONAL WEATHER ROUNDUP
NATIONAL WEATHER SERVICE CHEYENNE WY
500 AM MDT SAT APR 25 2015

NOTE:  "FAIR" INDICATES FEW OR NO CLOUDS BELOW 12,000 FEET
WITH NO SIGNIFICANT WEATHER AND/OR OBSTRUCTIONS TO VISIBILITY.

WYZ001-251200-
YELLOWSTONE NATIONAL PARK

CITY           SKY/WX    TMP DP  RH WIND       PRES   REMARKS
LK YELLOWSTONE   N/A     30  27  88 VRB3      29.74R
W YELLOWSTONE  NOT AVBL

$$
WYZ002>013-054>058-071-098>099-251200-
NORTHERN WYOMING

CITY           SKY/WX    TMP DP  RH WIND       PRES   REMARKS
JACKSON        CLOUDY    36  34  93 S12       29.75R WCI  27
CODY           CLOUDY    39  37  93 N12       29.66R WCI  32
GREYBULL       MOCLDY    48  40  73 NW15      29.60R
WORLAND        FAIR      42  37  82 NE6       29.61R
SHERIDAN       FAIR      46  39  76 W15G22    29.62R
BUFFALO        FAIR      47  36  65 N13       29.62R
GILLETTE       FAIR      45  39  79 SE7       29.63R
HULETT         FAIR      41  32  70 CALM      29.66S
NEWCASTLE      FAIR      36  36 100 NE6       29.67F WCI  31

$$
WYZ014>020-022>026-101>103-251200-
CENTRAL WYOMING

CITY           SKY/WX    TMP DP  RH WIND       PRES   REMARKS
BIG PINEY      FAIR      34  32  92 NE7       29.75R WCI  28
PINEDALE       CLOUDY    34  34 100 CALM      29.75S
DUBOIS         PTSUNNY   34  32  93 NW8       29.68R WCI  27
LANDER         FAIR      44  33  65 N5        29.60S
RIVERTON       FAIR      45  33  63 NW3       29.61F
CASPER         FAIR      42  34  73 SW13      29.67R
DOUGLAS        FAIR      39  37  92 E8        29.68S WCI  33

$$
WYZ021-027>030-104>119-251200-
SOUTHERN WYOMING

CITY           SKY/WX    TMP DP  RH WIND       PRES   REMARKS
EVANSTON       MOCLDY    32  32 100 S14       29.82S WCI  22
KEMMERER       PTSUNNY   32  32 100 SW12      29.79R WCI  23
FORT BRIDGER   SUNNY     36  32  87 SW25G32   29.83R WCI  23
ROCK SPRINGS   CLOUDY    36  33  89 W21       29.78R WCI  25
DIXON          CLOUDY    42  32  68 S9G16     29.81R
RAWLINS        CLOUDY    38  31  76 SW3       29.75R
SARATOGA       FAIR      34  30  86 MISG      29.77S
LARAMIE        FAIR      33  26  75 S7        29.77S WCI  27
CHEYENNE       CLOUDY    43  30  60 N6        29.74R
TORRINGTON     FAIR      40  38  93 NW7       29.68R
PINE BLUFFS    FAIR      36  32  87 CALM      29.71F

$$


USA.gov is the U.S. government's official web portal to all federal, state and local government web resources and services.